DELTA 1 DEB

Satellite information

Favourite Embed

Satellite Type and Status

DEBRISIN ORBIT

Key statistics

Satellite DELTA 1 DEB at a glance.

Uptime

17292

Days in orbit

Revolutions

≈ 14.0

Per day

Orbit

SSO

Sun Synchronous Orbit

Inclination

99.2

Latest

Satellite identification and parameters

Extended collection of information and parameters for DELTA 1 DEB.

Object identification

Identified? True

Debris? True

Object name: DELTA 1 DEB

International designator: 1978-026JQ

Object number (NORAD): 37653

Object ID (CCSDS): 37653

Country: UNITED STATES OF AMERICA (US)

Current information (Y/N): Y

RCS size: SMALL

Orbital parameters

Period: 102.53 minutes

Inclination: 99.2192 deg

SMA: 7256.505 km

Apoapsis: 905.381 km

Periapsis: 851.36 km

RAAN: 206.2838 deg

Eccentricy: 0.0037222

Argument of periapsis: 304.8856 deg

Mean anomaly: 180.2637 deg

Mean motion: 14.04466805 rev/day

Mean motion (dot): 0.0000028 rev/day2

B* drag term: 0.0002033 1/REarth

Two-line elements (TLE)

Creation date: July 7, 2025, 5:18 a.m.

Reference frame: TEME

Reference center: EARTH

Epoch: July 6, 2025, 8:33 p.m. UTC

TLE line 0: 0 DELTA 1 DEB

TLE line 1: 1 37653U 78026JQ 25187.85632152 .00000280 00000-0 20330-3 0 9993

TLE line 2: 2 37653 99.2192 206.2838 0037222 304.8856 180.2637 14.04466805612832

Live tracking on map

Real-time ground track for satellite DELTA 1 DEB.

In-orbit conjunctions

A list of the most updated potential collisions computed for object DELTA 1 DEB.

Target Orbit TCA Probability of collision Miss distance Type
CZ-6A DEB LEO 2025-02-04 23:56:09 0.0002487685 102.0 (m) DEBRIS
FENGYUN 1C DEB SSO 2024-11-14 01:45:34 0.001817606 85.0 (m) DEBRIS

Associated space launch

Earth observation satellite

DELTA 1 DEB was lifted into orbit during the mission ‘Delta 2910 | Landsat 3’, on board a Delta 2910 space rocket.

The launch took place on March 5, 1978, 5:54 p.m. from Space Launch Complex 2W.

For more information about the launch, click the button.

Launch to space Delta 2910 | Landsat 3
Delta 2910 | Landsat 3

Agency: N/A

Status: Launch Successful

Launch date: March 5, 1978, 5:54 p.m. UTC

Rocket: Delta 2910

Launch pad: Space Launch Complex 2W

Location: Vandenberg SFB, CA, USA

...

Latest news about this satellite

There are no fresh news available about this satellite. Check back as we update our databases every day.


Newsletter sign-up

Weekly statistics, charts and insights to help you stay on top of the space industry.